Location: Bh?mavarapp?du
(16.7041°N, 80.6518°E)
Time: 06:24:52
(UTC+00:00)

METEOR-M - Pass Details

Date: 21 April 2021
Orbit: 816 x 819 km, 98.5° (Epoch: 06 May)

Event Time Altitude Azimuth Distance (km) Brightness Sun altitude
Rises 23:06:09 0° 5° (N) 3,339 7.6 -17.3°
Reaches altitude 10° 23:08:32 10° 1° (N) 2,406 6.8 -16.7°
Maximum altitude 23:13:44 57° 284° (WNW) 954 4.2 -15.6°
Drops below altitude 10° 23:18:57 10° 206° (SSW) 2,404 6.2 -14.4°
Enters shadow 23:19:24 - 205° (SSW) 2,577 6.3 -14.3°
